DELTA 1 DEB

Satellite information

Favourite Embed

Satellite Type and Status

DEBRISIN ORBIT

Key statistics

Satellite DELTA 1 DEB at a glance.

Uptime

17580

Days in orbit

Revolutions

≈ 13.5

Per day

Orbit

LEO

Low Earth Orbit

Inclination

29.1

Latest

Satellite identification and parameters

Extended collection of information and parameters for DELTA 1 DEB.

Object identification

Identified? True

Debris? True

Object name: DELTA 1 DEB

International designator: 1977-065N

Object number (NORAD): 10184

Object ID (CCSDS): 10184

Country: UNITED STATES OF AMERICA (US)

Current information (Y/N): Y

RCS size: LARGE

Orbital parameters

Period: 106.78 minutes

Inclination: 29.0778 deg

SMA: 7455.689 km

Apoapsis: 1643.581 km

Periapsis: 511.528 km

RAAN: 319.6015 deg

Eccentricy: 0.07591875

Argument of periapsis: 4.9414 deg

Mean anomaly: 355.8164 deg

Mean motion: 13.4856245 rev/day

Mean motion (dot): 0.00001099 rev/day2

B* drag term: 0.00024710192 1/REarth

Two-line elements (TLE)

Creation date: Aug. 31, 2025, 2:26 a.m.

Reference frame: TEME

Reference center: EARTH

Epoch: Aug. 30, 2025, 8:59 p.m. UTC

TLE line 0: 0 DELTA 1 DEB

TLE line 1: 1 10184U 77065N 25242.87480590 .00001099 00000-0 24710-3 0 9991

TLE line 2: 2 10184 29.0778 319.6015 0759187 4.9414 355.8164 13.48562450328039

Live tracking on map

Real-time ground track for satellite DELTA 1 DEB.

In-orbit conjunctions

A list of the most updated potential collisions computed for object DELTA 1 DEB.

Target Orbit TCA Probability of collision Miss distance Type
TIMATION 2 LEO 2025-04-04 13:26:39 0.0001036965 323.0 (m) PAYLOAD
CZ-6A R/B SSO 2025-03-02 16:17:49 0.0001529809 43.0 (m) ROCKET BODY

Associated space launch

Japanese meteorological satellite built by Hughes Space and Communications Company

DELTA 1 DEB was lifted into orbit during the mission ‘Delta 2914 | Himawari’, on board a Delta 2914 space rocket.

The launch took place on July 14, 1977, 10:39 a.m. from Space Launch Complex 17B.

For more information about the launch, click the button.

Launch to space Delta 2914 | Himawari
Delta 2914 | Himawari

Agency: N/A

Status: Launch Successful

Launch date: July 14, 1977, 10:39 a.m. UTC

Rocket: Delta 2914

Launch pad: Space Launch Complex 17B

Location: Cape Canaveral SFS, FL, USA

...

Latest news about this satellite

There are no fresh news available about this satellite. Check back as we update our databases every day.


Newsletter sign-up

Weekly statistics, charts and insights to help you stay on top of the space industry.